Regional Weather Roundup
Issued by NWS

Home | Current Version | Previous Version | Text Only | Print | Product List | Glossary On
Versions: 1 2 3 4 5 6 7 8 9 10 11 12 13 14 15 16 17 18 19 20 21 22 23 24 25 26 27 28 29 30 31 32 33 34 35 36 37 38 39 40 41 42 43 44 45 46 47 48 49 50
000
ASUS44 KJAN 182310
RWRMS

MISSISSIPPI HOURLY WEATHER ROUNDUP
NATIONAL WEATHER SERVICE JACKSON MS
600 PM CDT FRI APR 18 2014

NOTE: "FAIR: INDICATES FEW OR NO CLOUDS BELOW 12,000 FEET WITH NO
SIGNIFICANT WEATHER AND/OR OBSTRUCTIONS TO VISIBILITY.

MSZ001>002-007>008-010>013-018>021-025>028-034>036-190000-
NORTHWEST MISSISSIPPI

CITY           SKY/WX    TMP DP  RH WIND       PRES   REMARKS
CLARKSDALE       N/A     72  54  53 E9        30.15S
CLEVELAND      FAIR      72  54  52 NE8       30.12F
GREENWOOD      MOSUNNY   68  52  56 NE10      30.14S
GREENVILLE     MOSUNNY   74  51  44 E13       30.11F
GRENADA        MOCLDY    68  52  56 E10       30.16S
OLIVE BRANCH   PTSUNNY   68  52  56 E8        30.16S
OXFORD         PTSUNNY   64  50  59 E6        30.18S
TUNICA         PTCLDY    70  52  52 NE12      30.15S
$$

MSZ003>006-009-014>017-022>024-029>033-037>039-190000-
NORTHEAST MISSISSIPPI

CITY           SKY/WX    TMP DP  RH WIND       PRES   REMARKS
BELMONT        FAIR      62  52  70 CALM      30.17S
COLUMBUS AFB   CLOUDY    63  52  68 E7        30.17S
CORINTH        FAIR      66  50  55 S7        30.16F
GOLDN TRIANGLE PTSUNNY   63  52  67 E10       30.19R
STARKVILLE     CLOUDY    63  54  72 N7        30.16R
TUPELO         PTSUNNY   64  53  67 NE3       30.16F
$$

MSZ040-058-190000-
CENTRAL MISSISSIPPI

CITY           SKY/WX    TMP DP  RH WIND       PRES   REMARKS
JACKSON INTL   PTSUNNY   72  53  51 N12       30.11S
JACKSON HAWKNS PTSUNNY   70  53  54 MISG      30.11S
MERIDIAN KEY   LGT RAIN  60  54  80 NE15      30.14R
MERIDIAN NAS   CLOUDY    58  55  90 NE6       30.16R
RAYMOND        FAIR      72  66  83 NE3       30.11S
VICKSBURG      PTSUNNY   72  56  57 NE9       30.10F
$$

MSZ059>079-190000-
SOUTH MISSISSIPPI

CITY           SKY/WX    TMP DP  RH WIND       PRES   REMARKS
BROOKHAVEN     MOCLDY    70  55  60 NE7       30.11S
COLUMBIA       MOCLDY    66  57  72 MISG      30.09S
HATTIESBURG    CLOUDY    64  56  75 N10       30.11S
MCCOMB         MOSUNNY   72  53  51 NE9       30.08S
NATCHEZ        PTSUNNY   70  57  64 NE7       30.10S
PINE BELT      PTSUNNY   64  54  68 NE14      30.12S
$$

MSZ080>082-190000-
COASTAL MISSISSIPPI

CITY           SKY/WX    TMP DP  RH WIND       PRES   REMARKS
BAY ST LOUIS   PTSUNNY   63  55  77 N12       30.09R
BILOXI         PTSUNNY   65  57  75 N8        30.05S
PASCAGOULA     CLOUDY    63  56  78 N16G25    30.04S
GULFPORT       MOSUNNY   68  56  65 N12       30.06R
$$



USA.gov is the U.S. government's official web portal to all federal, state and local government web resources and services.